Weather History for Russellville, AR

Change the Weather History Date:

Thursday, February 21, 2013

  Actual Average (KHOT) Record (KHOT)
Temperature  
Mean Temperature 32 °F -  
Max Temperature 35 °F 61 °F 87 °F (1986)
Min Temperature 30 °F 35 °F 18 °F (1978)
Degree Days  
Heating Degree Days 32    
Moisture  
Dew Point 30 °F    
Average Humidity 89    
Maximum Humidity 100    
Minimum Humidity 79    
Precipitation  
Precipitation 1.08 in - - ()
Sea Level Pressure  
Sea Level Pressure 29.88 in    
Wind  
Wind Speed 6 mph (East)    
Max Wind Speed 13 mph    
Max Gust Speed 29 mph    
Visibility 5 miles    
Events Fog , Rain , Thunderstorm    
Averages and records for this station are not official NWS values.
T = Trace of Precipitation, MM = Missing Value Source: NWS Daily Summary

Daily Weather History Graph

Daily Weather History Graph

Search for Another Location

Airport:

Trip Planner

Search our weather history database for the weather conditions in past years. The results will help you decide how hot, cold, wet, or windy it might be!

Date:

Astronomy

Feb. 21, 2013 Rise Set
Actual Time 6:51 AM CST 6:00 PM CST
Civil Twilight 6:25 AM CST 6:26 PM CST
Nautical Twilight 5:56 AM CST 6:56 PM CST
Astronomical Twilight 5:26 AM CST 7:25 PM CST
Moon 2:21 PM CST (2/21) 3:50 AM CST (2/21)
Length of Visible Light 12h 00m
Length of Day
11h 09m
Waxing Gibbous, 84% of the Moon is Illuminated
Feb 21
Waxing Gibbous
Feb 25
Full
Mar 4
Last Quarter
Mar 11
New
Mar 19
First Quarter

Hourly Weather History & Observations

Time (CST) Temp. Windchill Dew Point Humidity Pressure Visibility Wind Dir Wind Speed Gust Speed Precip Events Conditions
12:50 AM 32.0 °F 24.8 °F 26.6 °F 80% 30.12 in 6.0 mi East 8.1 mph 16.1 mph 0.00 in Rain Light Freezing Rain
12:53 AM 32.0 °F 24.8 °F 26.1 °F 79% 30.11 in 5.0 mi East 8.1 mph - N/A Rain Light Freezing Rain
1:10 AM 32.0 °F 26.4 °F 26.6 °F 80% 30.10 in 10.0 mi East 5.8 mph - N/A Rain Light Freezing Rain
1:34 AM 32.0 °F 23.6 °F 26.6 °F 80% 30.10 in 10.0 mi East 10.4 mph - N/A   Overcast
1:53 AM 30.9 °F 24.3 °F 26.1 °F 82% 30.09 in 10.0 mi Variable 6.9 mph - N/A   Overcast
2:53 AM 30.9 °F 23.5 °F 26.1 °F 82% 30.05 in 10.0 mi East 8.1 mph - N/A   Overcast
3:53 AM 32.0 °F 24.8 °F 27.0 °F 82% 30.02 in 10.0 mi East 8.1 mph - N/A   Overcast
4:53 AM 32.0 °F 24.2 °F 27.0 °F 82% 29.99 in 10.0 mi East 9.2 mph 17.3 mph 0.00 in   Overcast
5:53 AM 32.0 °F 24.8 °F 27.0 °F 82% 29.99 in 8.0 mi East 8.1 mph 16.1 mph 0.00 in   Overcast
6:03 AM 32.0 °F 24.8 °F 28.4 °F 87% 29.97 in 5.0 mi ESE 8.1 mph 17.3 mph 0.00 in Rain Light Freezing Rain
6:10 AM 32.0 °F 23.6 °F 28.4 °F 87% 29.98 in 8.0 mi ESE 10.4 mph 16.1 mph 0.00 in Rain Light Freezing Rain
6:37 AM 32.0 °F 23.6 °F 26.6 °F 80% 29.95 in 10.0 mi East 10.4 mph 20.7 mph 0.00 in   Overcast
6:53 AM 32.0 °F 23.6 °F 28.0 °F 85% 29.94 in 9.0 mi East 10.4 mph 20.7 mph 0.00 in   Overcast
7:12 AM 32.0 °F 24.2 °F 26.6 °F 80% 29.91 in 10.0 mi East 9.2 mph 28.8 mph 0.00 in   Overcast
7:33 AM 32.0 °F 24.2 °F 26.6 °F 80% 29.93 in 10.0 mi ESE 9.2 mph - 0.00 in   Overcast
7:53 AM 32.0 °F 25.6 °F 27.0 °F 82% 29.92 in 10.0 mi Variable 6.9 mph 16.1 mph 0.00 in   Overcast
8:12 AM 32.0 °F 25.6 °F 26.6 °F 80% 29.91 in 10.0 mi Variable 6.9 mph - N/A Thunderstorm Overcast
8:20 AM 32.0 °F 22.5 °F 28.4 °F 87% 29.87 in 5.0 mi East 12.7 mph 20.7 mph 0.02 in Rain , Thunderstorm Light Freezing Rain
8:35 AM 32.0 °F 24.8 °F 28.4 °F 87% 29.87 in 7.0 mi East 8.1 mph 20.7 mph 0.03 in Rain Light Freezing Rain
8:46 AM 32.0 °F 24.2 °F 28.4 °F 87% 29.85 in 10.0 mi East 9.2 mph - 0.03 in   Overcast
8:53 AM 32.0 °F 26.4 °F 27.0 °F 82% 29.86 in 10.0 mi East 5.8 mph 16.1 mph 0.03 in   Overcast
9:17 AM 32.0 °F - 28.4 °F 87% 29.89 in 2.5 mi Calm Calm - 0.03 in Rain , Thunderstorm Light Freezing Rain
9:25 AM 32.0 °F 26.4 °F 28.4 °F 87% 29.92 in 1.0 mi Variable 5.8 mph 18.4 mph 0.11 in Rain , Thunderstorm Light Freezing Rain
9:33 AM 32.0 °F 26.4 °F 28.4 °F 87% 29.88 in 0.8 mi Variable 5.8 mph - 0.19 in Rain , Thunderstorm Light Freezing Rain
9:46 AM 32.0 °F 22.5 °F 30.2 °F 93% 29.83 in 2.0 mi ESE 12.7 mph 23.0 mph 0.30 in Rain , Thunderstorm Light Freezing Rain
9:51 AM 33.8 °F 25.8 °F 30.2 °F 87% 29.83 in 3.0 mi ESE 10.4 mph 23.0 mph 0.33 in Rain Light Freezing Rain
9:53 AM 33.1 °F 26.1 °F 30.0 °F 89% 29.84 in 2.5 mi ESE 8.1 mph 20.7 mph 0.35 in Rain Light Freezing Rain
9:58 AM 33.8 °F 25.8 °F 30.2 °F 87% 29.81 in 1.8 mi East 10.4 mph 17.3 mph 0.03 in Rain , Thunderstorm Light Freezing Rain
10:06 AM 33.8 °F 26.4 °F 30.2 °F 87% 29.81 in 2.0 mi ESE 9.2 mph 16.1 mph 0.07 in Rain , Thunderstorm Light Freezing Rain
10:14 AM 33.8 °F 28.6 °F 30.2 °F 87% 29.86 in 3.0 mi Variable 5.8 mph 16.1 mph 0.09 in Rain , Thunderstorm Light Freezing Rain
10:20 AM 33.8 °F 30.8 °F 30.2 °F 87% 29.85 in 1.8 mi Variable 3.5 mph - 0.13 in Rain , Thunderstorm Light Freezing Rain
10:31 AM 33.8 °F 27.0 °F 30.2 °F 87% 29.85 in 2.5 mi ESE 8.1 mph - 0.17 in Rain , Thunderstorm Light Freezing Rain
10:36 AM 33.8 °F 26.4 °F 30.2 °F 87% 29.82 in 2.0 mi East 9.2 mph 18.4 mph 0.20 in Rain , Thunderstorm Heavy Rain
10:38 AM 33.8 °F 28.6 °F 30.2 °F 87% 29.83 in 2.0 mi Variable 5.8 mph 18.4 mph 0.21 in Rain , Thunderstorm Heavy Thunderstorms and Rain
10:51 AM 33.8 °F 30.8 °F 30.2 °F 87% 29.85 in 4.0 mi Variable 3.5 mph - 0.23 in   Overcast
10:53 AM 33.1 °F 27.7 °F 30.9 °F 92% 29.85 in 2.5 mi Variable 5.8 mph - 0.24 in Rain , Thunderstorm Heavy Thunderstorms and Rain
11:02 AM 33.8 °F 27.0 °F 30.2 °F 87% 29.85 in 1.5 mi ESE 8.1 mph - 0.08 in Rain , Thunderstorm Heavy Thunderstorms and Rain
11:08 AM 33.8 °F 27.7 °F 30.2 °F 87% 29.84 in 3.0 mi Variable 6.9 mph - 0.09 in Rain , Thunderstorm Light Thunderstorms and Rain
11:33 AM 33.8 °F 30.8 °F 30.2 °F 87% 29.87 in 3.0 mi Variable 3.5 mph - 0.12 in Rain Rain
11:53 AM 33.1 °F 27.7 °F 30.9 °F 92% 29.88 in 3.0 mi East 5.8 mph - 0.17 in Rain Rain
12:03 PM 33.8 °F - 30.2 °F 87% 29.87 in 2.0 mi Calm Calm - 0.05 in Rain Heavy Rain
12:11 PM 33.8 °F 30.8 °F 30.2 °F 87% 29.85 in 4.0 mi East 3.5 mph - 0.07 in Rain Light Rain
12:19 PM 33.8 °F 28.6 °F 30.2 °F 87% 29.84 in 4.0 mi East 5.8 mph - 0.08 in Rain Rain
12:53 PM 34.0 °F 29.8 °F 30.9 °F 89% 29.81 in 6.0 mi East 4.6 mph - 0.10 in   Overcast
1:40 PM 33.8 °F 30.8 °F 32.0 °F 93% 29.78 in 2.5 mi East 3.5 mph - 0.04 in   Overcast
1:53 PM 34.0 °F 29.8 °F 30.9 °F 89% 29.78 in 2.0 mi East 4.6 mph - 0.05 in   Overcast
2:20 PM 33.8 °F 29.6 °F 32.0 °F 93% 29.77 in 1.8 mi East 4.6 mph - 0.02 in   Overcast
2:32 PM 33.8 °F 29.6 °F 32.0 °F 93% 29.77 in 2.5 mi East 4.6 mph - 0.03 in   Overcast
2:53 PM 34.0 °F 28.0 °F 32.0 °F 92% 29.76 in 2.0 mi East 6.9 mph - 0.04 in   Overcast
3:01 PM 33.8 °F 29.6 °F 32.0 °F 93% 29.76 in 1.5 mi East 4.6 mph - 0.01 in   Overcast
3:19 PM 33.8 °F 30.8 °F 32.0 °F 93% 29.76 in 2.0 mi ESE 3.5 mph - 0.02 in   Overcast
3:53 PM 34.0 °F 31.0 °F 32.0 °F 92% 29.77 in 3.0 mi East 3.5 mph - 0.04 in   Overcast
4:53 PM 35.1 °F - 30.9 °F 85% 29.77 in 10.0 mi Calm Calm - 0.03 in   Overcast
5:36 PM 33.8 °F - 32.0 °F 93% 29.79 in 2.0 mi Calm Calm - 0.02 in   Overcast
5:53 PM 35.1 °F - 33.1 °F 92% 29.81 in 3.0 mi Calm Calm - 0.02 in   Overcast
6:03 PM 33.8 °F - 32.0 °F 93% 29.81 in 2.5 mi Calm Calm - 0.01 in   Overcast
6:12 PM 33.8 °F - 33.8 °F 100% 29.83 in 4.0 mi Calm Calm - 0.01 in   Overcast
6:46 PM 33.8 °F - 33.8 °F 100% 29.85 in 4.0 mi Calm Calm - 0.01 in   Overcast
6:53 PM 34.0 °F - 33.1 °F 96% 29.85 in 2.5 mi Calm Calm - 0.01 in   Overcast
7:06 PM 33.8 °F - 33.8 °F 100% 29.85 in 4.0 mi Calm Calm - N/A   Overcast
7:30 PM 33.8 °F 30.8 °F 32.0 °F 93% 29.85 in 2.5 mi ENE 3.5 mph - N/A   Overcast
7:42 PM 33.8 °F - 32.0 °F 93% 29.84 in 3.0 mi Calm Calm - N/A   Overcast
7:53 PM 34.0 °F 31.0 °F 32.0 °F 92% 29.84 in 5.0 mi East 3.5 mph - N/A   Overcast
8:34 PM 35.6 °F - 33.8 °F 93% 29.85 in 5.0 mi Calm Calm - N/A   Overcast
8:53 PM 34.0 °F - 33.1 °F 96% 29.87 in 5.0 mi Calm Calm - N/A   Overcast
9:19 PM 35.6 °F - 33.8 °F 93% 29.87 in 4.0 mi Calm Calm - N/A   Overcast
9:53 PM 34.0 °F - 33.1 °F 96% 29.88 in 4.0 mi Calm Calm - N/A   Overcast
10:20 PM 33.8 °F - 33.8 °F 100% 29.88 in 1.8 mi Calm Calm - N/A   Overcast
10:40 PM 33.8 °F - 33.8 °F 100% 29.89 in 0.5 mi Calm Calm - N/A Fog Fog
10:53 PM 34.0 °F - 33.1 °F 96% 29.89 in 0.5 mi Calm Calm - N/A Fog Fog